DW0487 Weather Reports


Display with metric or nautical units.
time (UTC)temp
F
wind
direction
speed
MPH
gust
MPH
rain 1hr
in
rain 24hr
in
rain mn
in
humidity
%
barometer
mb
20210919074546 47 79 0.0 0.0 0.00 0.00 0.00 98 1011.6
20210919073048 45 79 0.0 0.0 0.00 0.00 0.00 98 1011.5
20210919071638 44 79 0.0 1.0 0.00 0.00 0.00 98 1011.8
20210919070040 43 38 0.0 0.0 0.00 0.00 0.00 98 1011.9
20210919064548 43 38 0.0 0.0 0.00 0.00 0.00 98 1012.0
20210919063134 42 29 0.0 0.0 0.00 0.00 0.00 98 1012.1
20210919061531 42 29 0.0 0.0 0.00 0.00 0.00 98 1012.2
20210919060058 41 29 0.0 0.0 0.00 0.00 0.00 98 1012.3
20210919054543 42 29 0.0 0.0 0.00 0.00 0.00 98 1012.4
20210919053042 42 29 0.0 0.0 0.00 0.00 0.00 98 1012.4
20210919051540 42 29 0.0 0.0 0.00 0.00 0.00 98 1012.4
20210919050021 42 29 0.0 0.0 0.00 0.00 0.00 98 1012.3
20210919044541 42 29 0.0 0.0 0.00 0.00 0.00 98 1012.5
20210919043042 42 29 0.0 0.0 0.00 0.00 0.00 98 1012.5
20210919041524 43 29 0.0 0.0 0.00 0.00 0.00 98 1012.3
20210919040043 43 29 0.0 1.0 0.00 0.00 0.00 98 1012.4
20210919034535 43 29 0.0 0.0 0.00 0.00 0.00 98 1012.1
20210919033022 43 13 0.0 1.0 0.00 0.00 0.00 98 1012.2
20210919031524 43 336 0.0 0.0 0.00 0.00 0.00 98 1012.4
20210919030024 43 225 0.0 0.0 0.00 0.00 0.00 97 1012.6
20210919024515 43 225 0.0 0.0 0.00 0.00 0.00 98 1012.8
20210919023025 43 225 0.0 1.0 0.00 0.00 0.00 98 1013.0
20210919021512 44 225 0.0 0.0 0.00 0.00 0.00 97 1013.2
20210919020033 44 225 0.0 0.0 0.00 0.00 0.00 97 1013.4
20210919014519 44 225 0.0 0.0 0.00 0.00 0.00 97 1013.5
20210919013007 44 225 0.0 0.0 0.00 0.00 0.00 97 1013.6
20210919011506 44 225 0.0 0.0 0.00 0.00 0.00 96 1013.7
20210919010026 44 225 0.0 0.0 0.00 0.00 0.00 96 1013.8
20210919004512 43 225 0.0 0.0 0.00 0.00 0.00 96 1013.8
20210919003005 42 225 0.0 0.0 0.00 0.00 0.00 95 1013.9
20210919001503 42 225 0.0 0.0 0.00 0.00 0.00 95 1013.9
20210919000115 43 225 0.0 0.0 0.00 0.00 0.00 95 1014.2
20210918234619 44 225 0.0 0.0 0.00 0.00 0.00 95 1014.1
20210918233147 44 225 0.0 0.0 0.00 0.00 0.00 95 1014.1
20210918231600 44 225 0.0 1.0 0.00 0.00 0.00 95 1014.1
20210918230159 44 225 0.0 0.0 0.00 0.00 0.00 95 1014.1
20210918224609 44 225 0.0 0.0 0.00 0.00 0.00 95 1014.1
20210918223227 45 225 0.0 0.0 0.00 0.00 0.00 94 1014.2
20210918221633 46 225 0.0 0.0 0.00 0.00 0.00 94 1014.3
20210918220128 46 225 0.0 0.0 0.00 0.00 0.00 94 1014.3
20210918214700 46 225 0.0 1.0 0.00 0.00 0.00 95 1014.5
20210918213202 46 175 0.0 0.0 0.00 0.00 0.00 94 1014.6
20210918211554 47 169 0.0 1.0 0.00 0.00 0.00 94 1014.5
20210918210057 48 157 0.0 0.0 0.00 0.00 0.00 93 1014.6
20210918204721 47 9 0.0 0.0 0.00 0.00 0.00 94 1014.6
20210918203054 47 9 0.0 0.0 0.00 0.00 0.00 94 1014.8
20210918201603 48 9 0.0 0.0 0.00 0.00 0.00 93 1014.8
20210918200049 49 9 0.0 0.0 0.00 0.00 0.00 93 1014.8
20210918194620 50 9 0.0 0.0 0.00 0.00 0.00 92 1014.6
20210918193100 50 9 0.0 0.0 0.00 0.00 0.00 91 1014.6
20210918191603 51 9 0.0 0.0 0.00 0.00 0.00 90 1014.7
20210918190109 52 9 0.0 0.0 0.00 0.00 0.00 89 1014.6
20210918184603 53 9 0.0 0.0 0.00 0.00 0.00 87 1014.5
20210918183045 53 9 0.0 0.0 0.00 0.00 0.00 85 1014.3
20210918181523 54 9 0.0 0.0 0.00 0.00 0.00 83 1014.3
20210918180019 55 9 0.0 0.0 0.00 0.00 0.00 80 1014.1
20210918174518 55 46 0.0 1.0 0.00 0.00 0.00 79 1014.0
20210918173028 56 44 2.0 5.0 0.00 0.00 0.00 77 1014.2
20210918171531 57 28 1.0 5.0 0.00 0.00 0.00 75 1014.0
20210918170010 57 40 3.0 5.0 0.00 0.00 0.00 74 1014.1
20210918164512 58 24 2.0 6.0 0.00 0.00 0.00 72 1014.1
20210918163014 59 34 4.0 6.0 0.00 0.00 0.00 71 1014.1
20210918161527 60 72 4.0 6.0 0.00 0.00 0.00 70 1014.0
20210918160007 61 26 3.0 9.0 0.00 0.00 0.00 68 1014.0
20210918154508 62 5 5.0 10.0 0.00 0.01 0.00 64 1014.0
20210918153037 62 45 4.0 12.0 0.00 0.01 0.00 65 1014.1
20210918151505 62 15 6.0 10.0 0.00 0.01 0.00 65 1014.1
20210918150011 61 360 3.0 10.0 0.00 0.01 0.00 67 1014.2
20210918144504 61 30 3.0 9.0 0.00 0.01 0.00 66 1014.1
20210918143003 61 49 5.0 10.0 0.00 0.01 0.00 66 1014.4
20210918141509 62 38 5.0 13.0 0.00 0.01 0.00 67 1014.5
20210918140001 62 51 6.0 12.0 0.00 0.01 0.00 65 1014.5
20210918134659 63 75 6.0 12.0 0.00 0.01 0.00 65 1014.6
20210918133349 63 25 5.0 13.0 0.00 0.01 0.00 65 1014.7
20210918131644 64 43 9.0 15.0 0.00 0.01 0.00 63 1014.7
20210918130143 64 21 6.0 13.0 0.00 0.01 0.00 63 1014.6
20210918124620 64 31 8.0 14.0 0.00 0.01 0.00 63 1014.4
20210918123130 65 32 8.0 12.0 0.00 0.01 0.00 60 1014.5
20210918121621 64 32 8.0 14.0 0.00 0.01 0.00 63 1014.6
20210918120135 65 40 8.0 12.0 0.00 0.01 0.00 63 1014.7
20210918114644 64 30 5.0 10.0 0.00 0.01 0.00 61 1014.7
20210918113108 64 30 7.0 12.0 0.00 0.01 0.00 64 1014.7
20210918111752 64 42 8.0 11.0 0.00 0.01 0.00 62 1014.9
20210918110121 64 40 3.0 11.0 0.00 0.01 0.00 63 1015.0
20210918104606 62 43 3.0 10.0 0.00 0.01 0.00 64 1015.0
20210918103209 63 24 3.0 12.0 0.00 0.01 0.00 64 1015.0
20210918101605 63 61 3.0 9.0 0.00 0.01 0.00 64 1015.2
20210918100131 62 64 2.0 6.0 0.00 0.01 0.00 64 1015.4
20210918094616 60 58 0.0 6.0 0.00 0.01 0.00 68 1015.4
20210918093105 61 49 0.0 1.0 0.00 0.01 0.00 69 1015.4
20210918091557 60 119 0.0 1.0 0.00 0.01 0.00 78 1015.6
20210918090048 58 205 0.0 1.0 0.00 0.01 0.00 77 1015.6
20210918084526 57 194 0.0 0.0 0.00 0.01 0.00 78 1015.7
20210918083033 55 155 0.0 1.0 0.00 0.01 0.00 84 1015.8
20210918081544 53 155 0.0 1.0 0.00 0.01 0.00 89 1016.0
20210918080016 52 117 0.0 0.0 0.00 0.01 0.00 93 1016.3